Regional Weather Roundup
Issued by NWS Goodland, KS

Home | Current Version | Previous Version | Graphics & Text | Print | Product List | Glossary Off
Versions: 1 2 3 4 5 6 7 8 9 10 11 12 13 14 15 16 17 18 19 20 21 22 23 24 25 26 27 28 29 30 31 32 33 34 35 36 37 38 39 40 41 42 43 44 45 46 47 48 49 50

000
ASUS43 KGLD 271159
RWRGLD

GOODLAND FORECAST AREA HOURLY WEATHER ROUNDUP
NATIONAL WEATHER SERVICE GOODLAND KS
600 AM MDT FRI MAY 27 2016

...OFFICIAL OBSERVATIONS...

CITY           SKY/WX    TMP DP  RH WIND       PRES   REMARKS
GOODLAND KS    CLOUDY    51  50  96 S3        29.75R
HILL CITY KS   CLOUDY    57  56  96 SE5       29.71R
IMPERIAL NEB   CLOUDY    53  51  93 NE5       29.75R
MCCOOK NEB     CLOUDY    56  54  93 N3        29.74R
AKRON CO       RAIN      48  46  93 N22       29.76S FOG
BURLINGTON CO  CLOUDY    47  44  90 CALM      29.75R
LIMON CO       RAIN      44  42  93 N15G24    29.78S FOG
$$

...UNOFFICIAL OBSERVATIONS...

CITY           SKY/WX    TMP DP  RH WIND       PRES   REMARKS
GOVE KS          N/A     57  32  39 MISG        N/A
LENORA KS        N/A     56  32  40 MISG        N/A
KIT CARSON CO    N/A     49  45  85 CALM        N/A
YUMA CO          N/A     50  48  93 NE10        N/A
$$




USA.gov is the U.S. government's official web portal to all federal, state and local government web resources and services.